Wind_Speed
30 30 29 28 28 27 27 26 26 26 26 25 25 25 25 24 24 24 23 23 24 24 24 25 25 26 26 26 27 28 28 28 28 28 28 28 28 29 29 29 29 29 30
33 32 31 31 30 29 28 28 28 27 27 27 27 27 27 26 25 25 25 25 25 25 25 26 27 27 27 28 29 29 29 29 29 29 29 29 30 30 30 30 31 31 31
35 34 34 33 32 31 31 30 30 29 29 29 29 29 29 28 26 26 26 26 27 27 27 28 29 29 29 30 30 30 30 30 30 30 31 31 31 31 31 31 32 32 33
38 37 36 36 35 34 33 33 32 31 31 30 30 30 29 29 28 28 29 28 28 29 29 30 31 31 32 32 32 32 32 32 32 32 33 33 33 33 33 33 33 34 35
39 39 38 38 38 36 35 35 34 34 34 33 32 32 31 31 31 31 31 31 31 31 32 32 33 33 34 34 34 34 34 34 34 34 34 34 34 34 35 35 36 37 37
40 41 41 40 40 38 38 37 37 37 36 36 35 34 34 34 34 34 34 34 34 34 34 35 35 35 36 35 35 35 36 35 36 36 36 35 35 36 36 37 38 38 39
41 42 43 42 41 41 40 40 39 38 38 37 37 36 36 36 36 36 37 36 37 37 37 37 37 38 38 37 37 37 38 38 38 38 37 37 37 37 38 39 40 40 40
44 44 44 44 43 42 42 42 41 40 40 40 39 39 38 37 37 38 39 39 39 38 39 40 40 39 39 39 39 39 39 39 39 39 38 38 38 38 39 40 41 42 42
45 45 45 45 44 44 43 43 42 42 42 42 41 41 40 40 39 40 40 41 42 40 39 40 41 40 40 41 41 40 40 40 40 40 40 39 39 40 40 41 42 43 43
47 46 45 45 45 46 45 44 44 44 44 44 44 43 43 42 42 41 41 42 41 40 40 40 42 42 42 42 42 42 42 42 43 42 42 41 41 42 43 43 44 44 45
47 47 46 47 47 47 47 46 46 45 45 45 44 44 43 42 42 42 42 41 41 41 41 41 42 43 43 43 43 43 42 43 44 44 43 43 43 44 44 45 45 45 46
49 48 47 48 48 48 47 47 47 47 46 46 45 45 44 43 43 43 43 43 43 43 43 42 43 44 44 44 45 44 44 44 45 45 45 44 45 45 46 46 46 46 47
49 49 48 48 48 48 47 47 47 47 47 46 46 46 46 45 45 45 45 45 44 44 44 43 44 45 45 45 46 46 46 46 46 46 46 46 47 47 47 47 47 48 49
48 49 49 49 48 48 47 48 48 47 48 48 48 48 47 48 47 47 47 48 49 48 47 45 45 46 46 46 47 47 47 47 48 48 48 48 48 47 48 48 48 50 51
47 47 47 47 48 48 48 48 48 48 49 49 49 49 48 48 48 48 49 50 51 50 48 47 46 46 45 46 47 48 48 48 49 49 49 49 48 48 49 49 50 50 50
46 46 46 47 48 48 49 48 49 49 50 50 50 50 50 49 49 49 49 50 51 51 50 48 47 47 47 47 47 48 49 50 50 50 49 48 48 48 49 49 50 50 50
46 47 47 48 49 49 49 49 49 50 50 50 50 50 50 49 48 49 49 49 49 50 51 49 48 48 48 48 48 49 50 51 51 50 49 48 48 49 50 50 50 50 51
48 49 49 48 49 49 49 49 50 50 50 49 48 48 49 49 48 48 48 48 49 49 50 50 49 49 48 48 48 49 50 51 51 50 49 49 49 49 49 50 50 52 53
49 49 49 48 48 48 48 48 48 48 48 48 48 48 48 48 47 48 49 49 50 50 50 50 49 48 48 48 48 48 50 50 50 49 49 48 48 49 50 50 51 52 52
47 48 48 48 48 47 47 47 48 48 47 47 48 47 47 47 47 48 48 49 49 49 50 51 51 50 49 49 48 47 48 48 47 47 48 48 48 49 50 51 51 51 52
45 45 46 46 47 46 46 47 47 46 46 46 46 46 46 47 48 48 48 48 48 49 50 50 50 51 50 50 50 49 48 47 45 46 47 48 49 50 50 51 51 51 51
43 43 44 44 45 46 46 45 45 44 44 45 45 46 47 48 48 48 47 46 47 48 49 49 49 49 49 49 49 49 47 46 44 44 46 47 49 50 50 51 51 51 50
41 41 42 43 43 44 45 45 45 45 45 45 46 46 46 46 47 46 45 46 47 48 48 48 48 49 49 49 48 47 46 45 44 45 46 46 47 48 49 49 49 48 46
40 40 41 42 43 44 45 45 45 45 45 45 45 45 45 45 46 46 45 46 45 45 46 47 48 48 48 47 46 47 47 45 44 44 45 46 46 48 48 48 47 46 45
40 40 41 42 43 43 44 45 44 43 44 44 44 44 44 44 45 46 46 46 46 46 45 46 46 46 45 45 46 46 46 45 43 42 43 44 45 46 45 44 44 43 42
39 40 41 42 42 42 43 44 43 43 44 44 44 43 43 44 45 46 46 46 46 46 45 44 44 43 42 43 44 45 44 44 43 43 43 43 43 43 42 41 41 41 40
Wind_Direction
260 261 263 265 267 268 268 269 269 269 270 272 274 276 276 277 278 278 278 281 284 287 289 291 293 295 297 298 297 296 295 294 297 298 297 297 297 297 296 296 296 297 297
259 261 262 264 265 266 267 269 269 269 270 271 273 275 276 275 277 277 279 281 283 286 288 290 291 294 296 296 296 296 295 295 295 296 296 295 295 295 296 296 296 296 296
258 260 262 263 263 264 266 268 268 269 270 271 273 274 274 274 275 276 277 280 282 284 286 288 289 291 293 294 294 294 294 294 293 294 294 294 293 293 294 294 295 295 296
257 259 262 262 262 264 265 266 268 270 272 272 273 274 274 275 275 276 276 278 281 284 286 287 289 289 290 292 293 293 293 293 293 293 293 293 292 291 292 292 293 294 295
257 259 261 261 262 264 264 265 267 269 271 272 272 273 274 275 276 277 276 277 280 283 285 287 288 289 289 290 291 291 291 292 292 292 293 292 290 290 290 291 292 293 294
256 258 260 261 261 262 264 265 267 269 270 271 271 271 273 274 275 277 277 277 279 281 283 286 287 287 288 289 288 289 290 291 291 292 291 291 290 290 290 291 292 292 293
257 258 259 259 260 262 264 265 266 268 269 270 270 271 272 274 275 277 277 277 278 280 283 285 286 286 287 288 287 288 290 290 291 291 290 289 289 289 290 291 292 292 292
259 259 259 259 259 261 264 265 266 267 268 268 269 270 272 273 275 275 275 276 278 279 282 284 285 286 286 287 288 288 289 289 290 290 289 289 289 290 292 293 293 292 292
259 260 260 260 260 260 262 264 265 267 268 269 270 271 273 273 274 274 275 275 277 278 281 282 283 283 284 286 286 287 287 287 288 289 289 289 289 290 292 292 292 292 292
260 261 261 261 261 261 262 263 265 266 268 269 270 271 273 273 274 274 274 274 275 278 280 281 282 283 284 284 285 285 286 287 287 288 289 289 288 290 291 292 291 291 292
260 261 262 262 262 262 263 263 265 266 268 268 270 271 272 273 274 275 275 275 276 277 279 280 282 283 284 284 285 285 286 287 287 287 288 288 288 289 290 291 291 291 292
259 260 261 262 263 263 263 264 265 266 268 268 269 270 271 273 274 276 276 276 276 277 281 281 282 284 284 283 284 285 286 287 287 287 287 287 288 289 290 290 290 291 291
260 261 262 262 263 263 263 264 265 267 268 268 269 270 271 273 275 277 277 277 277 279 281 282 281 283 283 282 283 284 285 287 287 287 287 287 288 288 288 289 290 290 290
261 262 262 262 263 263 263 265 265 267 268 268 270 271 273 274 275 277 278 278 279 279 280 281 280 281 282 282 283 284 285 286 287 286 286 286 287 287 287 288 290 290 291
261 262 262 262 262 262 263 266 267 268 269 270 271 272 273 275 276 278 279 280 281 281 280 280 279 281 282 283 283 284 284 285 286 286 285 286 286 286 287 288 289 290 291
262 262 263 263 262 262 263 265 267 268 270 270 271 272 274 275 277 277 279 280 281 281 280 280 279 280 282 283 284 285 285 285 285 284 284 285 285 285 286 288 288 289 290
262 263 264 264 263 264 264 265 267 268 268 270 272 273 274 275 277 278 279 280 281 280 280 280 279 280 283 284 284 285 285 285 285 284 283 284 284 285 286 287 288 289 289
263 264 264 264 264 264 265 266 267 268 268 270 271 272 273 275 277 277 278 279 280 280 281 280 280 281 282 284 285 286 286 285 284 283 282 283 284 286 285 286 287 288 290
266 265 263 264 264 264 265 266 267 268 268 269 270 271 273 275 276 277 278 279 279 279 279 279 280 280 281 283 285 286 286 286 284 282 282 283 284 285 285 286 287 289 290
266 265 264 264 264 264 264 265 267 267 269 269 269 271 273 274 277 278 278 278 278 278 279 279 280 279 280 282 284 285 286 286 283 282 282 282 283 284 286 287 288 289 291
268 267 265 263 264 263 264 266 267 268 270 269 269 271 272 274 276 277 278 277 277 278 280 280 280 280 280 282 283 285 286 285 283 283 283 283 284 284 286 288 289 289 290
267 267 265 265 264 264 265 267 268 268 269 271 271 271 272 274 275 276 276 277 278 279 280 280 280 280 281 283 283 284 285 284 284 284 285 286 286 286 287 288 289 289 290
267 266 266 266 265 264 265 267 268 267 269 272 271 271 273 274 275 276 276 277 278 278 279 280 280 280 281 282 283 285 285 285 285 286 286 287 287 288 290 290 290 290 291
266 266 267 267 266 265 266 267 268 268 270 272 272 272 272 273 273 275 276 276 276 278 280 280 281 281 282 283 284 286 285 284 286 288 288 289 289 291 291 292 291 291 290
268 267 267 267 266 265 266 267 268 268 270 272 272 272 272 272 273 274 275 276 276 277 279 280 281 282 282 283 284 285 284 284 285 288 289 290 290 290 291 291 290 290 290
270 269 269 268 267 267 267 268 269 270 272 274 274 273 272 273 273 274 275 276 277 278 279 280 281 283 283 283 284 285 284 284 285 286 288 290 291 291 291 292 291 291 291
Height
5818 5819 5820 5820 5821 5821 5821 5821 5822 5822 5822 5822 5822 5822 5822 5822 5822 5822 5822 5822 5822 5822 5821 5820 5819 5818 5817 5816 5815 5813 5812 5810 5808 5807 5805 5803 5802 5800 5798 5796 5794 5792 5790
5811 5812 5813 5813 5814 5814 5815 5815 5815 5816 5816 5816 5817 5816 5816 5816 5816 5816 5816 5816 5816 5816 5815 5814 5814 5812 5811 5810 5808 5807 5805 5804 5802 5800 5799 5797 5795 5793 5791 5789 5787 5785 5783
5803 5804 5805 5806 5807 5807 5808 5808 5809 5809 5810 5810 5810 5810 5810 5810 5810 5810 5810 5810 5810 5809 5809 5808 5807 5806 5805 5804 5802 5800 5798 5797 5795 5793 5791 5790 5788 5786 5784 5782 5780 5778 5776
5795 5796 5798 5798 5799 5800 5801 5802 5802 5803 5803 5803 5803 5803 5803 5803 5803 5803 5803 5803 5803 5803 5802 5801 5800 5799 5798 5796 5795 5793 5791 5789 5787 5786 5784 5782 5780 5778 5776 5774 5772 5770 5768
5787 5788 5789 5790 5791 5792 5793 5794 5795 5795 5796 5796 5796 5796 5796 5796 5796 5796 5796 5796 5796 5796 5795 5794 5793 5791 5790 5788 5787 5785 5783 5781 5779 5777 5776 5774 5772 5770 5768 5766 5764 5762 5760
5777 5779 5780 5781 5782 5783 5784 5785 5786 5787 5787 5788 5788 5788 5789 5789 5788 5788 5788 5788 5788 5788 5787 5786 5785 5783 5782 5780 5778 5776 5775 5773 5771 5769 5767 5765 5763 5761 5759 5757 5755 5753 5750
5767 5769 5770 5771 5773 5774 5775 5776 5777 5778 5779 5779 5780 5780 5781 5781 5780 5780 5780 5780 5780 5779 5779 5778 5776 5775 5773 5771 5769 5768 5766 5764 5762 5760 5758 5756 5754 5752 5750 5748 5745 5743 5740
5757 5758 5759 5761 5763 5764 5766 5767 5768 5769 5769 5770 5771 5771 5772 5773 5772 5772 5771 5771 5771 5770 5769 5768 5767 5765 5764 5762 5760 5758 5756 5754 5753 5751 5749 5747 5745 5742 5740 5738 5735 5733 5730
5746 5748 5748 5750 5752 5754 5755 5757 5758 5759 5760 5760 5760 5761 5762 5763 5763 5763 5762 5761 5761 5760 5759 5758 5757 5756 5754 5753 5751 5749 5747 5745 5743 5741 5739 5737 5735 5732 5730 5727 5725 5722 5719
5736 5737 5738 5740 5742 5743 5745 5746 5747 5748 5749 5750 5750 5750 5751 5751 5751 5753 5753 5752 5750 5749 5748 5747 5747 5746 5744 5742 5741 5739 5736 5734 5732 5730 5728 5726 5724 5722 5719 5716 5713 5711 5707
5724 5726 5728 5729 5731 5732 5734 5735 5736 5737 5738 5739 5740 5740 5740 5740 5740 5741 5742 5742 5741 5740 5738 5736 5736 5735 5733 5731 5730 5728 5726 5724 5722 5720 5718 5715 5713 5711 5707 5704 5701 5699 5696
5712 5714 5716 5718 5719 5721 5722 5723 5724 5725 5727 5728 5729 5729 5729 5730 5730 5730 5730 5730 5730 5730 5727 5725 5724 5722 5721 5720 5718 5717 5715 5713 5711 5709 5707 5704 5702 5699 5696 5693 5690 5686 5683
5701 5703 5705 5706 5707 5709 5710 5711 5713 5714 5715 5716 5717 5718 5718 5718 5718 5718 5718 5718 5718 5718 5716 5714 5713 5711 5710 5709 5707 5705 5704 5701 5699 5697 5695 5692 5690 5686 5684 5681 5677 5674 5671
5689 5691 5692 5694 5695 5697 5698 5700 5701 5702 5703 5704 5705 5706 5707 5707 5706 5706 5705 5705 5705 5705 5704 5703 5701 5699 5698 5697 5695 5693 5692 5689 5687 5685 5683 5680 5677 5674 5671 5668 5665 5662 5658
5677 5678 5680 5681 5683 5685 5687 5688 5689 5690 5691 5692 5693 5694 5695 5695 5694 5694 5693 5691 5691 5691 5692 5691 5689 5688 5685 5684 5683 5681 5679 5677 5674 5672 5669 5667 5664 5661 5658 5655 5652 5649 5645
5665 5667 5668 5669 5671 5672 5674 5676 5677 5678 5679 5680 5681 5682 5682 5682 5682 5681 5680 5679 5677 5676 5677 5678 5677 5675 5673 5671 5670 5668 5666 5663 5661 5659 5656 5653 5651 5648 5645 5642 5640 5636 5633
5653 5655 5656 5658 5659 5660 5662 5664 5665 5666 5667 5668 5668 5669 5669 5669 5669 5668 5668 5667 5665 5664 5663 5664 5663 5662 5660 5658 5656 5654 5652 5650 5648 5645 5643 5640 5638 5635 5632 5630 5627 5623 5620
5641 5642 5644 5645 5646 5648 5649 5651 5653 5654 5655 5655 5656 5656 5657 5657 5657 5656 5655 5654 5653 5652 5650 5650 5650 5649 5647 5645 5643 5641 5638 5636 5634 5632 5629 5627 5625 5622 5620 5617 5614 5610 5606
5628 5629 5630 5632 5634 5635 5637 5639 5640 5641 5642 5643 5643 5644 5645 5644 5644 5643 5643 5641 5640 5639 5638 5637 5637 5636 5634 5632 5630 5627 5625 5623 5620 5618 5616 5614 5612 5609 5606 5603 5600 5597 5593
5615 5616 5617 5619 5621 5623 5624 5626 5627 5629 5629 5630 5631 5631 5632 5632 5631 5630 5629 5628 5627 5626 5625 5624 5623 5623 5621 5619 5617 5614 5612 5609 5607 5605 5603 5601 5599 5595 5592 5589 5587 5583 5579
5603 5604 5605 5606 5608 5610 5612 5613 5615 5616 5617 5618 5619 5619 5619 5619 5618 5617 5616 5615 5615 5614 5612 5611 5610 5609 5608 5606 5603 5601 5598 5596 5594 5592 5590 5588 5585 5582 5579 5575 5572 5568 5565
5592 5592 5593 5594 5596 5598 5599 5601 5602 5603 5605 5605 5606 5606 5606 5606 5605 5604 5603 5602 5602 5601 5599 5598 5597 5595 5594 5592 5590 5587 5585 5583 5582 5581 5577 5574 5571 5568 5565 5561 5558 5554 5550
5581 5581 5581 5582 5584 5586 5587 5589 5590 5591 5592 5593 5593 5593 5593 5593 5592 5591 5590 5590 5589 5588 5587 5585 5584 5583 5581 5580 5577 5575 5573 5570 5569 5567 5564 5562 5558 5554 5551 5547 5543 5540 5537
5569 5570 5570 5571 5572 5573 5575 5576 5577 5579 5579 5579 5579 5580 5580 5580 5579 5578 5578 5578 5577 5575 5574 5573 5572 5570 5568 5566 5564 5562 5560 5558 5557 5554 5552 5550 5546 5542 5538 5533 5530 5527 5524
5559 5559 5559 5560 5560 5562 5562 5563 5565 5565 5566 5567 5567 5566 5567 5567 5566 5565 5566 5566 5565 5563 5561 5560 5558 5557 5555 5553 5551 5549 5547 5546 5545 5542 5539 5537 5534 5531 5527 5522 5518 5515 5511
5548 5548 5548 5548 5549 5550 5550 5551 5551 5553 5553 5554 5554 5554 5554 5554 5554 5553 5553 5552 5551 5550 5549 5548 5546 5545 5543 5541 5539 5537 5535 5533 5532 5531 5528 5524 5522 5518 5516 5513 5508 5504 5500